TIME,�����g�[�mL�n,�t���O,�����g�[�mMJ�n,�t���O
2003/4/1 0:00,0,0,0,0
2003/4/1 0:15,0,0,0,0
2003/4/1 0:30,0,0,0,0
2003/4/1 0:45,0,0,0,0
2003/4/1 1:00,0,0,0,0
2003/4/1 1:15,0,0,0,0
2003/4/1 1:30,0,0,0,0
2003/4/1 1:45,0,0,0,0
2003/4/1 2:00,0,0,0,0
2003/4/1 2:15,0,0,0,0
2003/4/1 2:30,0,0,0,0
2003/4/1 2:45,0,0,0,0
2003/4/1 3:00,0,0,0,0
2003/4/1 3:15,0,0,0,0
2003/4/1 3:30,0,0,0,0
2003/4/1 3:45,0,0,0,0
2003/4/1 4:00,0,0,0,0
2003/4/1 4:15,0,0,0,0
2003/4/1 4:30,0,0,0,0
2003/4/1 4:45,0,0,0,0
2003/4/1 5:00,0,0,0,0
2003/4/1 5:15,0,0,0,0
2003/4/1 5:30,0,0,0,0
2003/4/1 5:45,0,0,0,0
2003/4/1 6:00,0.01382238,0,2.029125384,0
2003/4/1 6:15,0.018304358,0,2.687079681,0
2003/4/1 6:30,0.005570565,0,0.817758942,0
2003/4/1 6:45,0,0,0,0
2003/4/1 7:00,0,0,0,0
2003/4/1 7:15,0,0,0,0
2003/4/1 7:30,0,0,0,0
2003/4/1 7:45,0,0,0,0
2003/4/1 8:00,0,0,0,0
2003/4/1 8:15,0,0,0,0
2003/4/1 8:30,0,0,0,0
2003/4/1 8:45,0,0,0,0
2003/4/1 9:00,0,0,0,0
2003/4/1 9:15,0,0,0,0
2003/4/1 9:30,0,0,0,0
2003/4/1 9:45,0,0,0,0
2003/4/1 10:00,0,0,0,0
2003/4/1 10:15,0,0,0,0
2003/4/1 10:30,0,0,0,0
2003/4/1 10:45,0,0,0,0
2003/4/1 11:00,0,0,0,0
2003/4/1 11:15,0,0,0,0
2003/4/1 11:30,0,0,0,0
2003/4/1 11:45,0,0,0,0
2003/4/1 12:00,0,0,0,0
2003/4/1 12:15,0,0,0,0
2003/4/1 12:30,0,0,0,0
2003/4/1 12:45,0,0,0,0
2003/4/1 13:00,0,0,0,0
2003/4/1 13:15,0,0,0,0
2003/4/1 13:30,0,0,0,0
2003/4/1 13:45,0,0,0,0
2003/4/1 14:00,0,0,0,0
2003/4/1 14:15,0,0,0,0
2003/4/1 14:30,0,0,0,0
2003/4/1 14:45,0,0,0,0
2003/4/1 15:00,0,0,0,0
2003/4/1 15:15,0,0,0,0
2003/4/1 15:30,0,0,0,0
2003/4/1 15:45,0,0,0,0
2003/4/1 16:00,0,0,0,0
2003/4/1 16:15,0,0,0,0
2003/4/1 16:30,0,0,0,0
2003/4/1 16:45,0,0,0,0
2003/4/1 17:00,0,0,0,0
2003/4/1 17:15,0,0,0,0
2003/4/1 17:30,0,0,0,0
2003/4/1 17:45,0,0,0,0
2003/4/1 18:00,0.008882445,0,1.303942926,0
2003/4/1 18:15,0.011083215,0,1.627015962,0
2003/4/1 18:30,0.00675246,0,0.991261128,0
2003/4/1 18:45,0.00525954,0,0.772100472,0
2003/4/1 19:00,0,0,0,0
2003/4/1 19:15,0,0,0,0
2003/4/1 19:30,0,0,0,0
2003/4/1 19:45,0,0,0,0
2003/4/1 20:00,0,0,0,0
2003/4/1 20:15,0,0,0,0
2003/4/1 20:30,0,0,0,0
2003/4/1 20:45,0,0,0,0
2003/4/1 21:00,0,0,0,0
2003/4/1 21:15,0,0,0,0
2003/4/1 21:30,0,0,0,0
2003/4/1 21:45,0,0,0,0
2003/4/1 22:00,0,0,0,0
2003/4/1 22:15,0,0,0,0
2003/4/1 22:30,0,0,0,0
2003/4/1 22:45,0,0,0,0
2003/4/1 23:00,0,0,0,0
2003/4/1 23:15,0,0,0,0
2003/4/1 23:30,0,0,0,0
2003/4/1 23:45,0,0,0,0
2003/4/2 0:00,0,0,0,0
2003/4/2 0:15,0,0,0,0
2003/4/2 0:30,0,0,0,0
2003/4/2 0:45,0,0,0,0
2003/4/2 1:00,0,0,0,0
2003/4/2 1:15,0,0,0,0
2003/4/2 1:30,0,0,0,0
2003/4/2 1:45,0,0,0,0
2003/4/2 2:00,0,0,0,0
2003/4/2 2:15,0,0,0,0
2003/4/2 2:30,0,0,0,0
2003/4/2 2:45,0,0,0,0
2003/4/2 3:00,0,0,0,0
2003/4/2 3:15,0,0,0,0
2003/4/2 3:30,0,0,0,0
2003/4/2 3:45,0,0,0,0
2003/4/2 4:00,0,0,0,0
2003/4/2 4:15,0,0,0,0
2003/4/2 4:30,0,0,0,0
2003/4/2 4:45,0,0,0,0
2003/4/2 5:00,0,0,0,0
2003/4/2 5:15,0,0,0,0
2003/4/2 5:30,0,0,0,0
2003/4/2 5:45,0,0,0,0
2003/4/2 6:00,0.003435217,0,0.504289929,0
2003/4/2 6:15,0.018666862,0,2.740295415,0
2003/4/2 6:30,0.012134265,0,1.781310102,0
2003/4/2 6:45,0,0,0,0
2003/4/2 7:00,0,0,0,0
2003/4/2 7:15,0,0,0,0
2003/4/2 7:30,0,0,0,0
2003/4/2 7:45,0,0,0,0
2003/4/2 8:00,0,0,0,0
2003/4/2 8:15,0,0,0,0
2003/4/2 8:30,0,0,0,0
2003/4/2 8:45,0,0,0,0
2003/4/2 9:00,0,0,0,0
2003/4/2 9:15,0,0,0,0
2003/4/2 9:30,0,0,0,0
2003/4/2 9:45,0,0,0,0
2003/4/2 10:00,0,0,0,0
2003/4/2 10:15,0,0,0,0
2003/4/2 10:30,0,0,0,0
2003/4/2 10:45,0,0,0,0
2003/4/2 11:00,0,0,0,0
2003/4/2 11:15,0,0,0,0
2003/4/2 11:30,0,0,0,0
2003/4/2 11:45,0,0,0,0
2003/4/2 12:00,0,0,0,0
2003/4/2 12:15,0,0,0,0
2003/4/2 12:30,0,0,0,0
2003/4/2 12:45,0,0,0,0
2003/4/2 13:00,0,0,0,0
2003/4/2 13:15,0,0,0,0
2003/4/2 13:30,0,0,0,0
2003/4/2 13:45,0,0,0,0
2003/4/2 14:00,0,0,0,0
2003/4/2 14:15,0,0,0,0
2003/4/2 14:30,0,0,0,0
2003/4/2 14:45,0,0,0,0
2003/4/2 15:00,0,0,0,0
2003/4/2 15:15,0.009331823,0,1.369911543,0
2003/4/2 15:30,0.015904103,0,2.334722247,0
2003/4/2 15:45,0.004836975,0,0.71006793,0
2003/4/2 16:00,0,0,0,0
2003/4/2 16:15,0,0,0,0
2003/4/2 16:30,0,0,0,0
2003/4/2 16:45,0,0,0,0
2003/4/2 17:00,0.010092225,0,1.48153863,0
2003/4/2 17:15,0.011104665,0,1.630164822,0
2003/4/2 17:30,0.008222857,0,1.207115481,0
2003/4/2 17:45,0.00793221,0,1.164448428,0
2003/4/2 18:00,0.005905185,0,0.866881158,0
2003/4/2 18:15,0,0,0,0
2003/4/2 18:30,0,0,0,0
2003/4/2 18:45,0,0,0,0
2003/4/2 19:00,0,0,0,0
2003/4/2 19:15,0,0,0,0
2003/4/2 19:30,0,0,0,0
2003/4/2 19:45,0,0,0,0
2003/4/2 20:00,0,0,0,0
2003/4/2 20:15,0,0,0,0
2003/4/2 20:30,0,0,0,0
2003/4/2 20:45,0,0,0,0
2003/4/2 21:00,0,0,0,0
2003/4/2 21:15,0,0,0,0
2003/4/2 21:30,0,0,0,0
2003/4/2 21:45,0,0,0,0
2003/4/2 22:00,0,0,0,0
2003/4/2 22:15,0,0,0,0
2003/4/2 22:30,0,0,0,0
2003/4/2 22:45,0,0,0,0
2003/4/2 23:00,0,0,0,0
2003/4/2 23:15,0,0,0,0
2003/4/2 23:30,0,0,0,0
2003/4/2 23:45,0,0,0,0
2003/4/3 0:00,0,0,0,0
2003/4/3 0:15,0,0,0,0
2003/4/3 0:30,0,0,0,0
2003/4/3 0:45,0,0,0,0
2003/4/3 1:00,0,0,0,0
2003/4/3 1:15,0,0,0,0
2003/4/3 1:30,0,0,0,0
2003/4/3 1:45,0,0,0,0
2003/4/3 2:00,0,0,0,0
2003/4/3 2:15,0,0,0,0
2003/4/3 2:30,0,0,0,0
2003/4/3 2:45,0,0,0,0
2003/4/3 3:00,0,0,0,0
2003/4/3 3:15,0,0,0,0
2003/4/3 3:30,0,0,0,0
2003/4/3 3:45,0,0,0,0
2003/4/3 4:00,0,0,0,0
2003/4/3 4:15,0,0,0,0
2003/4/3 4:30,0,0,0,0
2003/4/3 4:45,0,0,0,0
2003/4/3 5:00,0,0,0,0
2003/4/3 5:15,0,0,0,0
2003/4/3 5:30,0.013498485,0,1.981577598,0
2003/4/3 5:45,0.018663645,0,2.739823086,0
2003/4/3 6:00,0.006221572,0,0.913326843,0
2003/4/3 6:15,0,0,0,0
2003/4/3 6:30,0,0,0,0
2003/4/3 6:45,0,0,0,0
2003/4/3 7:00,0,0,0,0
2003/4/3 7:15,0,0,0,0
2003/4/3 7:30,0,0,0,0
2003/4/3 7:45,0,0,0,0
2003/4/3 8:00,0,0,0,0
2003/4/3 8:15,0,0,0,0
2003/4/3 8:30,0,0,0,0
2003/4/3 8:45,0,0,0,0
2003/4/3 9:00,0,0,0,0
2003/4/3 9:15,0,0,0,0
2003/4/3 9:30,0,0,0,0
2003/4/3 9:45,0,0,0,0
2003/4/3 10:00,0,0,0,0
2003/4/3 10:15,0,0,0,0
2003/4/3 10:30,0,0,0,0
2003/4/3 10:45,0,0,0,0
2003/4/3 11:00,0,0,0,0
2003/4/3 11:15,0,0,0,0
2003/4/3 11:30,0,0,0,0
2003/4/3 11:45,0,0,0,0
2003/4/3 12:00,0,0,0,0
2003/4/3 12:15,0,0,0,0
2003/4/3 12:30,0,0,0,0
2003/4/3 12:45,0,0,0,0
2003/4/3 13:00,0,0,0,0
2003/4/3 13:15,0,0,0,0
2003/4/3 13:30,0,0,0,0
2003/4/3 13:45,0,0,0,0
2003/4/3 14:00,0,0,0,0
2003/4/3 14:15,0,0,0,0
2003/4/3 14:30,0,0,0,0
2003/4/3 14:45,0,0,0,0
2003/4/3 15:00,0,0,0,0
2003/4/3 15:15,0,0,0,0
2003/4/3 15:30,0,0,0,0
2003/4/3 15:45,0,0,0,0
2003/4/3 16:00,0,0,0,0
2003/4/3 16:15,0,0,0,0
2003/4/3 16:30,0,0,0,0
2003/4/3 16:45,0,0,0,0
2003/4/3 17:00,0,0,0,0
2003/4/3 17:15,0,0,0,0
2003/4/3 17:30,0,0,0,0
2003/4/3 17:45,0,0,0,0
2003/4/3 18:00,0,0,0,0
2003/4/3 18:15,0,0,0,0
2003/4/3 18:30,0,0,0,0
2003/4/3 18:45,0,0,0,0
2003/4/3 19:00,0,0,0,0
2003/4/3 19:15,0,0,0,0
2003/4/3 19:30,0,0,0,0
2003/4/3 19:45,0,0,0,0
2003/4/3 20:00,0,0,0,0
2003/4/3 20:15,0,0,0,0
2003/4/3 20:30,0,0,0,0
2003/4/3 20:45,0,0,0,0
2003/4/3 21:00,0,0,0,0
2003/4/3 21:15,0,0,0,0
2003/4/3 21:30,0,0,0,0
2003/4/3 21:45,0,0,0,0
2003/4/3 22:00,0,0,0,0
2003/4/3 22:15,0,0,0,0
2003/4/3 22:30,0,0,0,0
2003/4/3 22:45,0,0,0,0
2003/4/3 23:00,0,0,0,0
2003/4/3 23:15,0,0,0,0
2003/4/3 23:30,0,0,0,0
2003/4/3 23:45,0,0,0,0
2003/4/4 0:00,0,0,0,0
2003/4/4 0:15,0,0,0,0
2003/4/4 0:30,0,0,0,0
2003/4/4 0:45,0,0,0,0
2003/4/4 1:00,0,0,0,0
2003/4/4 1:15,0,0,0,0
2003/4/4 1:30,0,0,0,0
2003/4/4 1:45,0,0,0,0
2003/4/4 2:00,0,0,0,0
2003/4/4 2:15,0,0,0,0
2003/4/4 2:30,0,0,0,0
2003/4/4 2:45,0,0,0,0
2003/4/4 3:00,0,0,0,0
2003/4/4 3:15,0,0,0,0
2003/4/4 3:30,0,0,0,0
2003/4/4 3:45,0,0,0,0
2003/4/4 4:00,0,0,0,0
2003/4/4 4:15,0,0,0,0
2003/4/4 4:30,0,0,0,0
2003/4/4 4:45,0,0,0,0
2003/4/4 5:00,0,0,0,0
2003/4/4 5:15,0,0,0,0
2003/4/4 5:30,0,0,0,0
2003/4/4 5:45,0,0,0,0
2003/4/4 6:00,0,0,0,0
2003/4/4 6:15,0,0,0,0
2003/4/4 6:30,0,0,0,0
2003/4/4 6:45,0,0,0,0
2003/4/4 7:00,0,0,0,0
2003/4/4 7:15,0.014747947,0,2.164998693,0
2003/4/4 7:30,0.017835675,0,2.61827709,0
2003/4/4 7:45,0,0,0,0
2003/4/4 8:00,0,0,0,0
2003/4/4 8:15,0,0,0,0
2003/4/4 8:30,0,0,0,0
2003/4/4 8:45,0,0,0,0
2003/4/4 9:00,0,0,0,0
2003/4/4 9:15,0,0,0,0
2003/4/4 9:30,0,0,0,0
2003/4/4 9:45,0,0,0,0
2003/4/4 10:00,0,0,0,0
2003/4/4 10:15,0,0,0,0
2003/4/4 10:30,0,0,0,0
2003/4/4 10:45,0,0,0,0
2003/4/4 11:00,0,0,0,0
2003/4/4 11:15,0,0,0,0
2003/4/4 11:30,0,0,0,0
2003/4/4 11:45,0,0,0,0
2003/4/4 12:00,0,0,0,0
2003/4/4 12:15,0,0,0,0
2003/4/4 12:30,0,0,0,0
2003/4/4 12:45,0,0,0,0
2003/4/4 13:00,0,0,0,0
2003/4/4 13:15,0,0,0,0
2003/4/4 13:30,0,0,0,0
2003/4/4 13:45,0,0,0,0
2003/4/4 14:00,0,0,0,0
2003/4/4 14:15,0,0,0,0
2003/4/4 14:30,0,0,0,0
2003/4/4 14:45,0,0,0,0
2003/4/4 15:00,0,0,0,0
2003/4/4 15:15,0,0,0,0
2003/4/4 15:30,0,0,0,0
2003/4/4 15:45,0,0,0,0
2003/4/4 16:00,0,0,0,0
2003/4/4 16:15,0,0,0,0
2003/4/4 16:30,0.012675877,0,1.860818817,0
2003/4/4 16:45,0.016995908,0,2.494999221,0
2003/4/4 17:00,0.014574202,0,2.139492927,0
2003/4/4 17:15,0,0,0,0
2003/4/4 17:30,0,0,0,0
2003/4/4 17:45,0,0,0,0
2003/4/4 18:00,0,0,0,0
2003/4/4 18:15,0,0,0,0
2003/4/4 18:30,0,0,0,0
2003/4/4 18:45,0.01102101,0,1.617884268,0
2003/4/4 19:00,0.009331823,0,1.369911543,0
2003/4/4 19:15,0.007951515,0,1.167282402,0
2003/4/4 19:30,0.006376012,0,0.935998635,0
2003/4/4 19:45,0.005927708,0,0.870187461,0
2003/4/4 20:00,0.006042465,0,0.887033862,0
2003/4/4 20:15,0.004803728,0,0.705187197,0
2003/4/4 20:30,0.005205915,0,0.764228322,0
2003/4/4 20:45,0.007203983,0,1.057544631,0
2003/4/4 21:00,0.008960738,0,1.315436265,0
2003/4/4 21:15,0.012289777,0,1.804139337,0
2003/4/4 21:30,0.00634491,0,0.931432788,0
2003/4/4 21:45,0,0,0,0
2003/4/4 22:00,0,0,0,0
2003/4/4 22:15,0,0,0,0
2003/4/4 22:30,0,0,0,0
2003/4/4 22:45,0,0,0,0
2003/4/4 23:00,0,0,0,0
2003/4/4 23:15,0,0,0,0
2003/4/4 23:30,0,0,0,0
2003/4/4 23:45,0,0,0,0
2003/4/5 0:00,0,0,0,0
2003/4/5 0:15,0,0,0,0
2003/4/5 0:30,0,0,0,0
2003/4/5 0:45,0,0,0,0
2003/4/5 1:00,0,0,0,0
2003/4/5 1:15,0,0,0,0
2003/4/5 1:30,0,0,0,0
2003/4/5 1:45,0,0,0,0
2003/4/5 2:00,0,0,0,0
2003/4/5 2:15,0,0,0,0
2003/4/5 2:30,0,0,0,0
2003/4/5 2:45,0,0,0,0
2003/4/5 3:00,0,0,0,0
2003/4/5 3:15,0,0,0,0
2003/4/5 3:30,0,0,0,0
2003/4/5 3:45,0,0,0,0
2003/4/5 4:00,0,0,0,0
2003/4/5 4:15,0,0,0,0
2003/4/5 4:30,0,0,0,0
2003/4/5 4:45,0,0,0,0
2003/4/5 5:00,0,0,0,0
2003/4/5 5:15,0,0,0,0
2003/4/5 5:30,0,0,0,0
2003/4/5 5:45,0,0,0,0
2003/4/5 6:00,0,0,0,0
2003/4/5 6:15,0,0,0,0
2003/4/5 6:30,0,0,0,0
2003/4/5 6:45,0,0,0,0
2003/4/5 7:00,0,0,0,0
2003/4/5 7:15,0,0,0,0
2003/4/5 7:30,0.002849632,0,0.418326051,0
2003/4/5 7:45,0.018669008,0,2.740610301,0
2003/4/5 8:00,0.018662573,0,2.739665643,0
2003/4/5 8:15,0.017864633,0,2.622528051,0
2003/4/5 8:30,0.016757813,0,2.460046875,0
2003/4/5 8:45,0.012441,0,1.8263388,0
2003/4/5 9:00,0,0,0,0
2003/4/5 9:15,0,0,0,0
2003/4/5 9:30,0,0,0,0
2003/4/5 9:45,0,0,0,0
2003/4/5 10:00,0,0,0,0
2003/4/5 10:15,0,0,0,0
2003/4/5 10:30,0,0,0,0
2003/4/5 10:45,0,0,0,0
2003/4/5 11:00,0,0,0,0
2003/4/5 11:15,0.006046755,0,0.887663634,0
2003/4/5 11:30,0.018606803,0,2.731478607,0
2003/4/5 11:45,0.01702272,0,2.498935296,0
2003/4/5 12:00,0.01723293,0,2.529794124,0
2003/4/5 12:15,0.004588155,0,0.673541154,0
2003/4/5 12:30,0,0,0,0
2003/4/5 12:45,0,0,0,0
2003/4/5 13:00,0,0,0,0
2003/4/5 13:15,0,0,0,0
2003/4/5 13:30,0,0,0,0
2003/4/5 13:45,0,0,0,0
2003/4/5 14:00,0,0,0,0
2003/4/5 14:15,0,0,0,0
2003/4/5 14:30,0,0,0,0
2003/4/5 14:45,0,0,0,0
2003/4/5 15:00,0,0,0,0
2003/4/5 15:15,0,0,0,0
2003/4/5 15:30,0,0,0,0
2003/4/5 15:45,0,0,0,0
2003/4/5 16:00,0,0,0,0
2003/4/5 16:15,0,0,0,0
2003/4/5 16:30,0,0,0,0
2003/4/5 16:45,0,0,0,0
2003/4/5 17:00,0,0,0,0
2003/4/5 17:15,0,0,0,0
2003/4/5 17:30,0,0,0,0
2003/4/5 17:45,0,0,0,0
2003/4/5 18:00,0,0,0,0
2003/4/5 18:15,0,0,0,0
2003/4/5 18:30,0,0,0,0
2003/4/5 18:45,0,0,0,0
2003/4/5 19:00,0,0,0,0
2003/4/5 19:15,0,0,0,0
2003/4/5 19:30,0,0,0,0
2003/4/5 19:45,0,0,0,0
2003/4/5 20:00,0,0,0,0
2003/4/5 20:15,0,0,0,0
2003/4/5 20:30,0,0,0,0
2003/4/5 20:45,0,0,0,0
2003/4/5 21:00,0,0,0,0
2003/4/5 21:15,0,0,0,0
2003/4/5 21:30,0,0,0,0
2003/4/5 21:45,0,0,0,0
2003/4/5 22:00,0,0,0,0
2003/4/5 22:15,0,0,0,0
2003/4/5 22:30,0,0,0,0
2003/4/5 22:45,0,0,0,0
2003/4/5 23:00,0,0,0,0
2003/4/5 23:15,0,0,0,0
2003/4/5 23:30,0,0,0,0
2003/4/5 23:45,0,0,0,0
2003/4/6 0:00,0,0,0,0
2003/4/6 0:15,0,0,0,0
2003/4/6 0:30,0,0,0,0
2003/4/6 0:45,0,0,0,0
2003/4/6 1:00,0,0,0,0
2003/4/6 1:15,0,0,0,0
2003/4/6 1:30,0,0,0,0
2003/4/6 1:45,0,0,0,0
2003/4/6 2:00,0,0,0,0
2003/4/6 2:15,0,0,0,0
2003/4/6 2:30,0,0,0,0
2003/4/6 2:45,0,0,0,0
2003/4/6 3:00,0,0,0,0
2003/4/6 3:15,0,0,0,0
2003/4/6 3:30,0,0,0,0
2003/4/6 3:45,0,0,0,0
2003/4/6 4:00,0,0,0,0
2003/4/6 4:15,0,0,0,0
2003/4/6 4:30,0,0,0,0
2003/4/6 4:45,0,0,0,0
2003/4/6 5:00,0,0,0,0
2003/4/6 5:15,0,0,0,0
2003/4/6 5:30,0,0,0,0
2003/4/6 5:45,0,0,0,0
2003/4/6 6:00,0,0,0,0
2003/4/6 6:15,0,0,0,0
2003/4/6 6:30,0,0,0,0
2003/4/6 6:45,0,0,0,0
2003/4/6 7:00,0,0,0,0
2003/4/6 7:15,0,0,0,0
2003/4/6 7:30,0,0,0,0
2003/4/6 7:45,0,0,0,0
2003/4/6 8:00,0.01151007,0,1.689678276,0
2003/4/6 8:15,0.01866579,0,2.740137972,0
2003/4/6 8:30,0.018663645,0,2.739823086,0
2003/4/6 8:45,0,0,0,0
2003/4/6 9:00,0,0,0,0
2003/4/6 9:15,0,0,0,0
2003/4/6 9:30,0,0,0,0
2003/4/6 9:45,0,0,0,0
2003/4/6 10:00,0,0,0,0
2003/4/6 10:15,0,0,0,0
2003/4/6 10:30,0,0,0,0
2003/4/6 10:45,0,0,0,0
2003/4/6 11:00,0,0,0,0
2003/4/6 11:15,0,0,0,0
2003/4/6 11:30,0,0,0,0
2003/4/6 11:45,0,0,0,0
2003/4/6 12:00,0,0,0,0
2003/4/6 12:15,0,0,0,0
2003/4/6 12:30,0,0,0,0
2003/4/6 12:45,0,0,0,0
2003/4/6 13:00,0,0,0,0
2003/4/6 13:15,0,0,0,0
2003/4/6 13:30,0,0,0,0
2003/4/6 13:45,0,0,0,0
2003/4/6 14:00,0,0,0,0
2003/4/6 14:15,0,0,0,0
2003/4/6 14:30,0,0,0,0
2003/4/6 14:45,0,0,0,0
2003/4/6 15:00,0,0,0,0
2003/4/6 15:15,0,0,0,0
2003/4/6 15:30,0,0,0,0
2003/4/6 15:45,0,0,0,0
2003/4/6 16:00,0,0,0,0
2003/4/6 16:15,0,0,0,0
2003/4/6 16:30,0,0,0,0
2003/4/6 16:45,0,0,0,0
2003/4/6 17:00,0,0,0,0
2003/4/6 17:15,0,0,0,0
2003/4/6 17:30,0,0,0,0
2003/4/6 17:45,0,0,0,0
2003/4/6 18:00,0,0,0,0
2003/4/6 18:15,0,0,0,0
2003/4/6 18:30,0,0,0,0
2003/4/6 18:45,0,0,0,0
2003/4/6 19:00,0,0,0,0
2003/4/6 19:15,0.008796645,0,1.291347486,0
2003/4/6 19:30,0.018603585,0,2.731006278,0
2003/4/6 19:45,0.018164932,0,2.666612091,0
2003/4/6 20:00,0.015241298,0,2.237422473,0
2003/4/6 20:15,0.012361635,0,1.814688018,0
2003/4/6 20:30,0.012241515,0,1.797054402,0
2003/4/6 20:45,0.005897678,0,0.865779057,0
2003/4/6 21:00,0,0,0,0
2003/4/6 21:15,0,0,0,0
2003/4/6 21:30,0,0,0,0
2003/4/6 21:45,0,0,0,0
2003/4/6 22:00,0,0,0,0
2003/4/6 22:15,0,0,0,0
2003/4/6 22:30,0,0,0,0
2003/4/6 22:45,0,0,0,0
2003/4/6 23:00,0,0,0,0
2003/4/6 23:15,0,0,0,0
2003/4/6 23:30,0,0,0,0
2003/4/6 23:45,0,0,0,0
2003/4/7 0:00,0,0,0,0
2003/4/7 0:15,0,0,0,0
2003/4/7 0:30,0,0,0,0
2003/4/7 0:45,0,0,0,0
2003/4/7 1:00,0,0,0,0
2003/4/7 1:15,0,0,0,0
2003/4/7 1:30,0,0,0,0
2003/4/7 1:45,0,0,0,0
2003/4/7 2:00,0,0,0,0
2003/4/7 2:15,0,0,0,0
2003/4/7 2:30,0,0,0,0
2003/4/7 2:45,0,0,0,0
2003/4/7 3:00,0,0,0,0
2003/4/7 3:15,0,0,0,0
2003/4/7 3:30,0,0,0,0
2003/4/7 3:45,0,0,0,0
2003/4/7 4:00,0,0,0,0
2003/4/7 4:15,0,0,0,0
2003/4/7 4:30,0,0,0,0
2003/4/7 4:45,0,0,0,0
2003/4/7 5:00,0,0,0,0
2003/4/7 5:15,0,0,0,0
2003/4/7 5:30,0,0,0,0
2003/4/7 5:45,0,0,0,0
2003/4/7 6:00,0,0,0,0
2003/4/7 6:15,0,0,0,0
2003/4/7 6:30,0,0,0,0
2003/4/7 6:45,0,0,0,0
2003/4/7 7:00,0,0,0,0
2003/4/7 7:15,0,0,0,0
2003/4/7 7:30,0,0,0,0
2003/4/7 7:45,0,0,0,0
2003/4/7 8:00,0,0,0,0
2003/4/7 8:15,0,0,0,0
2003/4/7 8:30,0,0,0,0
2003/4/7 8:45,0,0,0,0
2003/4/7 9:00,0,0,0,0
2003/4/7 9:15,0,0,0,0
2003/4/7 9:30,0,0,0,0
2003/4/7 9:45,0,0,0,0
2003/4/7 10:00,0,0,0,0
2003/4/7 10:15,0,0,0,0
2003/4/7 10:30,0,0,0,0
2003/4/7 10:45,0,0,0,0
2003/4/7 11:00,0,0,0,0
2003/4/7 11:15,0,0,0,0
2003/4/7 11:30,0,0,0,0
2003/4/7 11:45,0,0,0,0
2003/4/7 12:00,0,0,0,0
2003/4/7 12:15,0,0,0,0
2003/4/7 12:30,0,0,0,0
2003/4/7 12:45,0,0,0,0
2003/4/7 13:00,0,0,0,0
2003/4/7 13:15,0,0,0,0
2003/4/7 13:30,0,0,0,0
2003/4/7 13:45,0,0,0,0
2003/4/7 14:00,0,0,0,0
2003/4/7 14:15,0,0,0,0
2003/4/7 14:30,0,0,0,0
2003/4/7 14:45,0,0,0,0
2003/4/7 15:00,0,0,0,0
2003/4/7 15:15,0,0,0,0
2003/4/7 15:30,0,0,0,0
2003/4/7 15:45,0,0,0,0
2003/4/7 16:00,0,0,0,0
2003/4/7 16:15,0,0,0,0
2003/4/7 16:30,0,0,0,0
2003/4/7 16:45,0,0,0,0
2003/4/7 17:00,0,0,0,0
2003/4/7 17:15,0,0,0,0
2003/4/7 17:30,0,0,0,0
2003/4/7 17:45,0,0,0,0
2003/4/7 18:00,0,0,0,0
2003/4/7 18:15,0,0,0,0
2003/4/7 18:30,0,0,0,0
2003/4/7 18:45,0,0,0,0
2003/4/7 19:00,0,0,0,0
2003/4/7 19:15,0,0,0,0
2003/4/7 19:30,0,0,0,0
2003/4/7 19:45,0,0,0,0
2003/4/7 20:00,0,0,0,0
2003/4/7 20:15,0,0,0,0
2003/4/7 20:30,0,0,0,0
2003/4/7 20:45,0,0,0,0
2003/4/7 21:00,0,0,0,0
2003/4/7 21:15,0,0,0,0
2003/4/7 21:30,0,0,0,0
2003/4/7 21:45,0,0,0,0
2003/4/7 22:00,0,0,0,0
2003/4/7 22:15,0,0,0,0
2003/4/7 22:30,0,0,0,0
2003/4/7 22:45,0,0,0,0
2003/4/7 23:00,0,0,0,0
2003/4/7 23:15,0,0,0,0
2003/4/7 23:30,0,0,0,0
2003/4/7 23:45,0,0,0,0
2003/4/8 0:00,0,0,0,0
2003/4/8 0:15,0,0,0,0
2003/4/8 0:30,0,0,0,0
2003/4/8 0:45,0,0,0,0
2003/4/8 1:00,0,0,0,0
2003/4/8 1:15,0,0,0,0
2003/4/8 1:30,0,0,0,0
2003/4/8 1:45,0,0,0,0
2003/4/8 2:00,0,0,0,0
2003/4/8 2:15,0,0,0,0
2003/4/8 2:30,0,0,0,0
2003/4/8 2:45,0,0,0,0
2003/4/8 3:00,0,0,0,0
2003/4/8 3:15,0,0,0,0
2003/4/8 3:30,0,0,0,0
2003/4/8 3:45,0,0,0,0
2003/4/8 4:00,0,0,0,0
2003/4/8 4:15,0,0,0,0
2003/4/8 4:30,0,0,0,0
2003/4/8 4:45,0,0,0,0
2003/4/8 5:00,0,0,0,0
2003/4/8 5:15,0,0,0,0
2003/4/8 5:30,0,0,0,0
2003/4/8 5:45,0,0,0,0
2003/4/8 6:00,0,0,0,0
2003/4/8 6:15,0,0,0,0
2003/4/8 6:30,0,0,0,0
2003/4/8 6:45,0,0,0,0
2003/4/8 7:00,0,0,0,0
2003/4/8 7:15,0,0,0,0
2003/4/8 7:30,0,0,0,0
2003/4/8 7:45,0,0,0,0
2003/4/8 8:00,0,0,0,0
2003/4/8 8:15,0,0,0,0
2003/4/8 8:30,0,0,0,0
2003/4/8 8:45,0,0,0,0
2003/4/8 9:00,0,0,0,0
2003/4/8 9:15,0,0,0,0
2003/4/8 9:30,0,0,0,0
2003/4/8 9:45,0,0,0,0
2003/4/8 10:00,0,0,0,0
2003/4/8 10:15,0,0,0,0
2003/4/8 10:30,0,0,0,0
2003/4/8 10:45,0,0,0,0
2003/4/8 11:00,0,0,0,0
2003/4/8 11:15,0,0,0,0
2003/4/8 11:30,0,0,0,0
2003/4/8 11:45,0,0,0,0
2003/4/8 12:00,0,0,0,0
2003/4/8 12:15,0,0,0,0
2003/4/8 12:30,0,0,0,0
2003/4/8 12:45,0,0,0,0
2003/4/8 13:00,0,0,0,0
2003/4/8 13:15,0,0,0,0
2003/4/8 13:30,0,0,0,0
2003/4/8 13:45,0,0,0,0
2003/4/8 14:00,0,0,0,0
2003/4/8 14:15,0,0,0,0
2003/4/8 14:30,0,0,0,0
2003/4/8 14:45,0,0,0,0
2003/4/8 15:00,0,0,0,0
2003/4/8 15:15,0,0,0,0
2003/4/8 15:30,0,0,0,0
2003/4/8 15:45,0,0,0,0
2003/4/8 16:00,0,0,0,0
2003/4/8 16:15,0,0,0,0
2003/4/8 16:30,0,0,0,0
2003/4/8 16:45,0,0,0,0
2003/4/8 17:00,0,0,0,0
2003/4/8 17:15,0,0,0,0
2003/4/8 17:30,0,0,0,0
2003/4/8 17:45,0,0,0,0
2003/4/8 18:00,0,0,0,0
2003/4/8 18:15,0,0,0,0
2003/4/8 18:30,0,0,0,0
2003/4/8 18:45,0,0,0,0
2003/4/8 19:00,0,0,0,0
2003/4/8 19:15,0,0,0,0
2003/4/8 19:30,0,0,0,0
2003/4/8 19:45,0,0,0,0
2003/4/8 20:00,0,0,0,0
2003/4/8 20:15,0,0,0,0
2003/4/8 20:30,0,0,0,0
2003/4/8 20:45,0,0,0,0
2003/4/8 21:00,0,0,0,0
2003/4/8 21:15,0,0,0,0
2003/4/8 21:30,0,0,0,0
2003/4/8 21:45,0,0,0,0
2003/4/8 22:00,0,0,0,0
2003/4/8 22:15,0,0,0,0
2003/4/8 22:30,0,0,0,0
2003/4/8 22:45,0,0,0,0
2003/4/8 23:00,0,0,0,0
2003/4/8 23:15,0,0,0,0
2003/4/8 23:30,0,0,0,0
2003/4/8 23:45,0,0,0,0
2003/4/9 0:00,0,0,0,0
2003/4/9 0:15,0,0,0,0
2003/4/9 0:30,0,0,0,0
2003/4/9 0:45,0,0,0,0
2003/4/9 1:00,0,0,0,0
2003/4/9 1:15,0,0,0,0
2003/4/9 1:30,0,0,0,0
2003/4/9 1:45,0,0,0,0
2003/4/9 2:00,0,0,0,0
2003/4/9 2:15,0,0,0,0
2003/4/9 2:30,0,0,0,0
2003/4/9 2:45,0,0,0,0
2003/4/9 3:00,0,0,0,0
2003/4/9 3:15,0,0,0,0
2003/4/9 3:30,0,0,0,0
2003/4/9 3:45,0,0,0,0
2003/4/9 4:00,0,0,0,0
2003/4/9 4:15,0,0,0,0
2003/4/9 4:30,0,0,0,0
2003/4/9 4:45,0,0,0,0
2003/4/9 5:00,0,0,0,0
2003/4/9 5:15,0,0,0,0
2003/4/9 5:30,0,0,0,0
2003/4/9 5:45,0,0,0,0
2003/4/9 6:00,0,0,0,0
2003/4/9 6:15,0,0,0,0
2003/4/9 6:30,0,0,0,0
2003/4/9 6:45,0,0,0,0
2003/4/9 7:00,0,0,0,0
2003/4/9 7:15,0,0,0,0
2003/4/9 7:30,0,0,0,0
2003/4/9 7:45,0,0,0,0
2003/4/9 8:00,0,0,0,0
2003/4/9 8:15,0,0,0,0
2003/4/9 8:30,0,0,0,0
2003/4/9 8:45,0,0,0,0
2003/4/9 9:00,0,0,0,0
2003/4/9 9:15,0,0,0,0
2003/4/9 9:30,0,0,0,0
2003/4/9 9:45,0,0,0,0
2003/4/9 10:00,0,0,0,0
2003/4/9 10:15,0,0,0,0
2003/4/9 10:30,0,0,0,0
2003/4/9 10:45,0,0,0,0
2003/4/9 11:00,0,0,0,0
2003/4/9 11:15,0,0,0,0
2003/4/9 11:30,0,0,0,0
2003/4/9 11:45,0,0,0,0
2003/4/9 12:00,0,0,0,0
2003/4/9 12:15,0,0,0,0
2003/4/9 12:30,0,0,0,0
2003/4/9 12:45,0,0,0,0
2003/4/9 13:00,0,0,0,0
2003/4/9 13:15,0,0,0,0
2003/4/9 13:30,0,0,0,0
2003/4/9 13:45,0,0,0,0
2003/4/9 14:00,0,0,0,0
2003/4/9 14:15,0,0,0,0
2003/4/9 14:30,0,0,0,0
2003/4/9 14:45,0,0,0,0
2003/4/9 15:00,0,0,0,0
2003/4/9 15:15,0,0,0,0
2003/4/9 15:30,0,0,0,0
2003/4/9 15:45,0,0,0,0
2003/4/9 16:00,0,0,0,0
2003/4/9 16:15,0,0,0,0
2003/4/9 16:30,0,0,0,0
2003/4/9 16:45,0,0,0,0
2003/4/9 17:00,0,0,0,0
2003/4/9 17:15,0,0,0,0
2003/4/9 17:30,0,0,0,0
2003/4/9 17:45,0,0,0,0
2003/4/9 18:00,0,0,0,0
2003/4/9 18:15,0,0,0,0
2003/4/9 18:30,0,0,0,0
2003/4/9 18:45,0,0,0,0
2003/4/9 19:00,0,0,0,0
2003/4/9 19:15,0,0,0,0
2003/4/9 19:30,0,0,0,0
2003/4/9 19:45,0,0,0,0
2003/4/9 20:00,0,0,0,0
2003/4/9 20:15,0,0,0,0
2003/4/9 20:30,0,0,0,0
2003/4/9 20:45,0,0,0,0
2003/4/9 21:00,0,0,0,0
2003/4/9 21:15,0,0,0,0
2003/4/9 21:30,0,0,0,0
2003/4/9 21:45,0,0,0,0
2003/4/9 22:00,0,0,0,0
2003/4/9 22:15,0,0,0,0
2003/4/9 22:30,0,0,0,0
2003/4/9 22:45,0,0,0,0
2003/4/9 23:00,0,0,0,0
2003/4/9 23:15,0,0,0,0
2003/4/9 23:30,0,0,0,0
2003/4/9 23:45,0,0,0,0
2003/4/10 0:00,0,0,0,0
2003/4/10 0:15,0,0,0,0
2003/4/10 0:30,0,0,0,0
2003/4/10 0:45,0,0,0,0
2003/4/10 1:00,0,0,0,0
2003/4/10 1:15,0,0,0,0
2003/4/10 1:30,0,0,0,0
2003/4/10 1:45,0,0,0,0
2003/4/10 2:00,0,0,0,0
2003/4/10 2:15,0,0,0,0
2003/4/10 2:30,0,0,0,0
2003/4/10 2:45,0,0,0,0
2003/4/10 3:00,0,0,0,0
2003/4/10 3:15,0,0,0,0
2003/4/10 3:30,0,0,0,0
2003/4/10 3:45,0,0,0,0
2003/4/10 4:00,0,0,0,0
2003/4/10 4:15,0,0,0,0
2003/4/10 4:30,0,0,0,0
2003/4/10 4:45,0,0,0,0
2003/4/10 5:00,0,0,0,0
2003/4/10 5:15,0,0,0,0
2003/4/10 5:30,0,0,0,0
2003/4/10 5:45,0,0,0,0
2003/4/10 6:00,0,0,0,0
2003/4/10 6:15,0,0,0,0
2003/4/10 6:30,0,0,0,0
2003/4/10 6:45,0,0,0,0
2003/4/10 7:00,0,0,0,0
2003/4/10 7:15,0,0,0,0
2003/4/10 7:30,0,0,0,0
2003/4/10 7:45,0,0,0,0
2003/4/10 8:00,0,0,0,0
2003/4/10 8:15,0,0,0,0
2003/4/10 8:30,0,0,0,0
2003/4/10 8:45,0,0,0,0
2003/4/10 9:00,0,0,0,0
2003/4/10 9:15,0,0,0,0
2003/4/10 9:30,0,0,0,0
2003/4/10 9:45,0,0,0,0
2003/4/10 10:00,0,0,0,0
2003/4/10 10:15,0,0,0,0
2003/4/10 10:30,0,0,0,0
2003/4/10 10:45,0,0,0,0
2003/4/10 11:00,0,0,0,0
2003/4/10 11:15,0,0,0,0
2003/4/10 11:30,0,0,0,0
2003/4/10 11:45,0,0,0,0
2003/4/10 12:00,0,0,0,0
2003/4/10 12:15,0,0,0,0
2003/4/10 12:30,0,0,0,0
2003/4/10 12:45,0,0,0,0
2003/4/10 13:00,0,0,0,0
2003/4/10 13:15,0,0,0,0
2003/4/10 13:30,0,0,0,0
2003/4/10 13:45,0,0,0,0
2003/4/10 14:00,0,0,0,0
2003/4/10 14:15,0,0,0,0
2003/4/10 14:30,0,0,0,0
2003/4/10 14:45,0,0,0,0
2003/4/10 15:00,0,0,0,0
2003/4/10 15:15,0,0,0,0
2003/4/10 15:30,0,0,0,0
2003/4/10 15:45,0,0,0,0
2003/4/10 16:00,0,0,0,0
2003/4/10 16:15,0,0,0,0
2003/4/10 16:30,0,0,0,0
2003/4/10 16:45,0,0,0,0
2003/4/10 17:00,0,0,0,0
2003/4/10 17:15,0,0,0,0
2003/4/10 17:30,0,0,0,0
2003/4/10 17:45,0,0,0,0
2003/4/10 18:00,0,0,0,0
2003/4/10 18:15,0,0,0,0
2003/4/10 18:30,0,0,0,0
2003/4/10 18:45,0,0,0,0
2003/4/10 19:00,0,0,0,0
2003/4/10 19:15,0,0,0,0
2003/4/10 19:30,0,0,0,0
2003/4/10 19:45,0,0,0,0
2003/4/10 20:00,0,0,0,0
2003/4/10 20:15,0,0,0,0
2003/4/10 20:30,0,0,0,0
2003/4/10 20:45,0,0,0,0
2003/4/10 21:00,0,0,0,0
2003/4/10 21:15,0,0,0,0
2003/4/10 21:30,0,0,0,0
2003/4/10 21:45,0,0,0,0
2003/4/10 22:00,0,0,0,0
2003/4/10 22:15,0,0,0,0
2003/4/10 22:30,0,0,0,0
2003/4/10 22:45,0,0,0,0
2003/4/10 23:00,0,0,0,0
2003/4/10 23:15,0,0,0,0
2003/4/10 23:30,0,0,0,0
2003/4/10 23:45,0,0,0,0
2003/4/11 0:00,0,0,0,0
2003/4/11 0:15,0,0,0,0